ARIANE 44LP DEB, 25542

Orbit data source: Space-Track

ARIANE 44LP DEB, 25542 is space debris in HEO originally from a launch on Sun, 11 Dec 1988 UTC launched from the French Guiana (FRGUI). Debris objects in space refer to the collection of defunct objects orbiting the Earth. Examples of debris include non-operational satellites, rocket bodies, and fragments generated from explosions, collisions, or faulty payload assembly.

Loading next visibility...
Identifier
25542, 1988-109J
Orbit
HEO
Country
Flag of FRFR
Related business
Manufacturer
Unknown
Mission
Spacecraft
Bus & Motor
Unknown
Mass
Unknown
Launch date (UTC)
1988-12-11 (37 years ago)
Launch vehicle
Unknown
Launch site
French Guiana (FRGUI)
Object type
Payload
Rocket body
Debris
Shape & HBR
Unknown shape, 2.0 m
Radar Cross Section
Large (>1 m²)

Expand to show TLE details & history
Last TLE update: 13 hours ago

TLE from 13 hours ago
0 ARIANE 44LP DEB
1 25542U 88109J   26035.49238933  .00000998  00000-0  30973-2 0  9991
2 25542   6.6332 241.7101 7167016  46.8100 354.1450  2.33796711235363
Epoch: 2026-02-04T11:49Z
TLE epoch observation values (Epoch: 2026-02-04T11:49:02.438Z)
Latitude
-0.00043°
Longitude
-70.46122°
Altitude
1,443.843 km
Speed
9.235 km/s
True Right ascension
16h 05m 49s
True Declination
0° 00' 02"
Sunlit
Object was in daylight at epoch
Visualization orbit readout
Latitude
Unknown
Longitude
Unknown
Altitude
Unknown
Speed
Unknown
Apparent Right ascension
Unknown
Apparent Declination
Unknown
Sunlit
N/A
Visualization observer readout
Local Sidereal Time
03:04:56
Azimuth
Unknown
Elevation
Unknown
Doppler factor
Unknown
Orbital elements
Apogee altitude
34,796.91 km
Perigee altitude
416.768 km
Semi-major axis
23,984.976 km
Eccentricity
0.7167
Inclination
6.6332°
RAAN
241.7101°
Arg. of periapsis
46.81°
True anomaly
313.73173°
Mean anomaly
354.145°
Eccentric anomaly
340.30777°
Mean motion
0.5843 °/min
Orbital period
616.12 mins
BSTAR
0.0030973
Loading maneuver chart data...
Computing Atmospheric mass density...
Loading historical data...
Loading historical data...
Loading historical data...
Loading historical data...
Loading historical data...
Loading historical data...
Loading historical data...

Documentation

Showing up to 5 results
|